Location: Cisewo
(53.3833°N, 14.9000°E)
Time: 03:29:44
(UTC+00:00)

NOAA 18 - Pass Details

Date: 27 September 2021
Orbit: 841 x 860 km, 99.0° (Epoch: 17 October)

Event Time Altitude Azimuth Distance (km) Brightness Sun altitude
Exits shadow 19:19:34 42° 77° (ENE) 1,192 5.6 -22.8°
Maximum altitude 19:20:04 43° 63° (ENE) 1,174 5.7 -22.8°
Drops below altitude 10° 19:25:15 10° 353° (N) 2,488 8.1 -23.5°
Sets 19:27:43 0° 347° (NNW) 3,431 9.0 -23.8°
